Outer Banks, North Carolina, United States
Lat: 35.98N, Lon: 75.65W
Wx Zone: NCZ103
Local Info
Past Weather Observations for Today

NOTE: This archive is for the closest National Weather Service station to Outer Banks. Information may differ from the station used for current weather conditions.

Click here for Long-term Archive

Time Weather Temperature Dewpoint Humidity Pressure Winds Precip Visibility
16:10
Overcast
59°F / 15°C 54°F / 12°C 82% 29.98 in
(1015 mb)
N 8.1 mph
(N 13 kph)
- 10SM
15:50
Overcast
59°F / 15°C 54°F / 12°C 82% 29.98 in
(1015 mb)
N 10.4 mph
(N 17 kph)
- 10SM
15:30
Overcast
59°F / 15°C 54°F / 12°C 82% 29.98 in
(1015 mb)
NNW 8.1 mph
(NNW 13 kph)
- 7SM
15:10
Overcast
59°F / 15°C 54°F / 12°C 82% 29.98 in
(1015 mb)
N 12.7 mph
(N 20 kph)
- 7SM
14:50
Overcast
61°F / 16°C 54°F / 12°C 77% 29.98 in
(1015 mb)
N 11.5 mph
(N 19 kph)
- 10SM
14:30
Overcast
63°F / 17°C 55°F / 13°C 77% 29.98 in
(1015 mb)
N 10.4 mph
(N 17 kph)
- 10SM
14:10
Overcast
64°F / 18°C 55°F / 13°C 73% 29.98 in
(1015 mb)
NNW 11.5 mph
(NNW 19 kph)
- 10SM
13:50
Mostly Cloudy
64°F / 18°C 55°F / 13°C 73% 29.98 in
(1015 mb)
NNW 8.1 mph
(NNW 13 kph)
- 10SM
13:30
Partly Cloudy
64°F / 18°C 55°F / 13°C 73% 29.98 in
(1015 mb)
NNW 9.2 mph
(NNW 15 kph)
- 10SM
13:10
Mostly Cloudy
64°F / 18°C 55°F / 13°C 73% 29.98 in
(1015 mb)
N 11.5 mph
(N 19 kph)
- 10SM
12:50
Overcast
64°F / 18°C 55°F / 13°C 73% 29.95 in
(1014 mb)
N 8.1 mph
(N 13 kph)
- 10SM
12:30
Overcast
64°F / 18°C 55°F / 13°C 73% 29.95 in
(1014 mb)
N 4.6 mph
(N 7 kph)
- 10SM
12:10
Overcast
63°F / 17°C 55°F / 13°C 77% 29.98 in
(1015 mb)
NNW 6.9 mph
(NNW 11 kph)
- 10SM
11:50
Overcast
63°F / 17°C 55°F / 13°C 77% 29.98 in
(1015 mb)
NNW 9.2 mph
(NNW 15 kph)
- 10SM
11:30
Overcast
61°F / 16°C 57°F / 14°C 88% 30.01 in
(1016 mb)
N 6.9 mph
(N 11 kph)
- 10SM
11:10
Overcast
59°F / 15°C 57°F / 14°C 94% 30.01 in
(1016 mb)
NNW 3.5 mph
(NNW 6 kph)
- 10SM
10:50
Overcast
57°F / 14°C 57°F / 14°C 100% 30.01 in
(1016 mb)
N 5.8 mph
(N 9 kph)
- 10SM
10:30
Overcast
57°F / 14°C 57°F / 14°C 100% 30.01 in
(1016 mb)
N 5.8 mph
(N 9 kph)
- 7SM
10:10
Overcast
57°F / 14°C 57°F / 14°C 100% 30.01 in
(1016 mb)
N 5.8 mph
(N 9 kph)
- 7SM
09:50
Overcast
Fog And Mist
57°F / 14°C 57°F / 14°C 100% 30.01 in
(1016 mb)
N 5.8 mph
(N 9 kph)
- 2 1/2SM
09:30
Overcast
55°F / 13°C 55°F / 13°C 100% 30.01 in
(1016 mb)
N 6.9 mph
(N 11 kph)
- 7SM
09:10
Overcast
Fog And Mist
55°F / 13°C 55°F / 13°C 100% 30.01 in
(1016 mb)
NE 6.9 mph
(NE 11 kph)
- 4SM
08:50
Overcast
Fog And Mist
55°F / 13°C 55°F / 13°C 100% 30.01 in
(1016 mb)
N 6.9 mph
(N 11 kph)
- 3SM
08:30
Overcast
Fog And Mist
55°F / 13°C 55°F / 13°C 100% 29.98 in
(1015 mb)
NNE 4.6 mph
(NNE 7 kph)
- 3SM
08:10
Overcast
Fog And Mist
55°F / 13°C 55°F / 13°C 100% 29.98 in
(1015 mb)
N 8.1 mph
(N 13 kph)
- 2SM
07:50
Overcast
Fog And Mist
55°F / 13°C 55°F / 13°C 100% 29.98 in
(1015 mb)
N 9.2 mph
(N 15 kph)
- 2SM
07:30
Overcast
Fog And Mist
55°F / 13°C 55°F / 13°C 100% 29.98 in
(1015 mb)
N 5.8 mph
(N 9 kph)
- 1 1/2SM
06:50
Overcast
Fog And Mist
55°F / 13°C 55°F / 13°C 100% 29.95 in
(1014 mb)
N 5.8 mph
(N 9 kph)
- 2SM
06:10
Overcast
55°F / 13°C 55°F / 13°C 100% 29.92 in
(1013 mb)
N 11.5 mph
(N 19 kph)
- 10SM
05:50
Overcast
Fog And Mist
55°F / 13°C 55°F / 13°C 100% 29.92 in
(1013 mb)
N 6.9 mph
(N 11 kph)
- 3SM
05:30
Overcast
Fog And Mist
55°F / 13°C 55°F / 13°C 100% 29.92 in
(1013 mb)
N 8.1 mph
(N 13 kph)
- 2 1/2SM
05:10
Overcast
Fog And Mist
55°F / 13°C 55°F / 13°C 100% 29.92 in
(1013 mb)
N 9.2 mph
(N 15 kph)
- 1SM
04:50
Overcast
Fog And Mist
57°F / 14°C 57°F / 14°C 100% 29.92 in
(1013 mb)
NNW 5.8 mph
(NNW 9 kph)
- 4SM
04:30
Overcast
Fog And Mist
57°F / 14°C 57°F / 14°C 100% 29.92 in
(1013 mb)
NNW 6.9 mph
(NNW 11 kph)
- 5SM
04:10
Partly Cloudy
Fog And Mist
57°F / 14°C 57°F / 14°C 100% 29.92 in
(1013 mb)
NW 6.9 mph
(NW 11 kph)
- 3SM
03:50
Clear
Fog And Mist
57°F / 14°C 57°F / 14°C 100% 29.89 in
(1012 mb)
Calm - 4SM
03:30
Clear
Fog And Mist
57°F / 14°C 57°F / 14°C 100% 29.89 in
(1012 mb)
Calm - 5SM
03:10
Clear
Fog And Mist
57°F / 14°C 57°F / 14°C 100% 29.89 in
(1012 mb)
E 3.5 mph
(E 6 kph)
- 5SM
02:50
Clear
Fog And Mist
57°F / 14°C 57°F / 14°C 100% 29.89 in
(1012 mb)
Calm - 4SM
00:30
Overcast
Fog
59°F / 15°C 59°F / 15°C 100% 29.92 in
(1013 mb)
NNE 4.6 mph
(NNE 7 kph)
0.01 in
(0.25 mm)
1/2SM
00:10
Overcast
Rain
59°F / 15°C 59°F / 15°C 100% 29.92 in
(1013 mb)
N 5.8 mph
(N 9 kph)
0.01 in
(0.25 mm)
1/2SM
Time Weather Temperature Dewpoint Humidity Pressure Winds Precip Visibility


Weather for websites

WeatherForYou.com, LLC is not responsible for any damages or problems caused by this service. Current weather conditions are obtained from the closest station including government and personal stations which may have varying degrees of accuracy. Weather forecasts are derived from the NOAA NDFD. Like all things, this site belongs to Jesus Christ... He just trusts us to maintain it. If you have any questions or comments email webmaster@weatherforyou.com

Copyright © 2016, WeatherForYou.com LLC. All rights reserved.